Tracking 31027 objects as of 19-Jul-2025
HD Live streaming from Space Station
objects crossing your sky now

STARLINK-5708

Track STARLINK-5708 now!
10-day predictions
STARLINK-5708 is classified as:


NORAD ID: 55470
Int'l Code: 2023-015X
Perigee: 565.5 km
Apogee: 566.9 km
Inclination: 43.0 °
Period: 95.8 minutes
Semi major axis: 6937 km
RCS: Unknown
Launch date: February 2, 2023
Source: United States (US)
Launch site: AIR FORCE EASTERN TEST RANGE (AFETR)
Your satellite tracking list
COSMOS 1743
Track 1 satellite(s)




NASA's NSSDC Master Catalog

Two Line Element Set (TLE):
1 55470U 23015X   25199.60136939  .00000316  00000-0  38425-4 0  9991
2 55470  43.0027 157.7353 0000973 269.4841  90.5890 15.02535428135547
Source of the keplerian elements: AFSPC